Location: Newark
(23.1300°N, 73.6109°E)
Time: 16:32:14
(UTC+00:00)

NOAA 18 - Pass Details

Date: 06 July 2020
Orbit: 839 x 862 km, 99.0° (Epoch: 05 August)

Event Time Altitude Azimuth Distance (km) Brightness Sun altitude
Exits shadow 15:31:25 32° 98° (E) 1,425 5.9 -19.8°
Maximum altitude 15:32:34 36° 73° (ENE) 1,338 5.9 -20.0°
Drops below altitude 10° 15:37:34 10° 8° (N) 2,492 8.0 -20.9°
Sets 15:40:06 0° 0° (N) 3,427 8.9 -21.4°
